Location: Pasarilla del Rebollar
(40.6790°N, 5.0062°W)
Time: 11:59:06
(UTC+00:00)

Okean 3 Rocket - Pass Details

Date: 22 April 2026
Orbit: 610 x 637 km, 82.5° (Epoch: 16 May)

Event Time Altitude Azimuth Distance (km) Brightness Sun altitude
Rises 03:58:54 0° 355° (N) 2,913 7.4 -16.7°
Reaches altitude 10° 04:01:09 10° 358° (N) 2,006 6.6 -16.3°
Maximum altitude 04:05:35 68° 81° (E) 679 3.9 -15.6°
Drops below altitude 10° 04:10:01 10° 165° (SSE) 2,006 6.0 -14.9°
Sets 04:12:15 0° 168° (SSE) 2,913 6.8 -14.5°
